[[[{"header":{"parameterUnit":"kt","parameterCategory":2,"dx":1,"dy":1,"la1":30.253999710083008,"la2":30.299108505249023,"lo1":-89.0895004272461,"lo2":-89.04439544677734,"nx":28,"ny":28,"refTime":"2022-09-23T21:00:00:Z","depth":0,"parameterNumber":1,"parameterNumberName":"U-component_of_WINDS"},"data":[-0.3864,-0.3852,-0.3815,-0.3784,-0.3744,-0.3716,-0.3694,-0.3662,-0.3625,-0.3588,-0.3559,-0.3519,-0.3467,-0.3423,-0.339,-0.3373,-0.3363,-0.3389,-0.3364,-0.3285,-0.3272,-0.326,-0.3262,-0.3386,-0.3386,-0.3453,-0.3454,-0.3454,-0.3816,-0.3778,-0.3749,-0.3695,-0.3671,-0.3624,-0.3577,-0.3561,-0.3537,-0.3491,-0.3459,-0.3422,-0.3388,-0.3325,-0.3285,-0.3279,-0.3255,-0.3272,-0.3274,-0.3267,-0.318,-0.3183,-0.3292,-0.3292,-0.3292,-0.3292,-0.3292,-0.3292,-0.3719,-0.3713,-0.3658,-0.3626,-0.3588,-0.3552,-0.3539,-0.3488,-0.3459,-0.3412,-0.3369,-0.3341,-0.3287,-0.3217,-0.3184,-0.3161,-0.3135,-0.3141,-0.3143,-0.3147,-0.3158,-0.3076,-0.3151,-0.315,-0.315,-0.3149,-0.3149,0,-0.3637,-0.3606,-0.3574,-0.3532,-0.3506,-0.3469,-0.3428,-0.3418,-0.3335,-0.3314,-0.328,-0.3254,-0.3202,-0.3166,-0.3117,-0.308,-0.303,-0.3017,-0.3022,-0.3046,-0.3075,-0.3065,-0.293,-0.3016,-0.3015,-0.3014,-0.3013,-0.3013,-0.3541,-0.3536,-0.3457,-0.3441,-0.3408,-0.3381,-0.3357,-0.3283,-0.3261,-0.3199,-0.3196,-0.3157,-0.3123,-0.3074,-0.3013,-0.2973,-0.2949,-0.2987,-0.2942,-0.2966,-0.2955,-0.2958,-0.2959,-0.2999,-0.3001,-0.3002,-0.3003,0,-0.3491,-0.3426,-0.3404,-0.3326,-0.3306,-0.3304,-0.3237,-0.3226,-0.3176,-0.3154,-0.3144,-0.3067,-0.3034,-0.2965,-0.2912,-0.2878,-0.2878,-0.2852,-0.2898,-0.2891,-0.2922,-0.2922,-0.3024,-0.3035,-0.29,-0.2902,-0.2903,0,-0.3385,-0.338,-0.3283,-0.3274,-0.3267,-0.3192,-0.3186,-0.3143,-0.3093,-0.3075,-0.3005,-0.2989,-0.2903,-0.2877,-0.2826,-0.2813,-0.2801,-0.2776,-0.2763,-0.2784,-0.2788,-0.2774,-0.277,-0.2727,-0.2727,-0.2727,-0.2726,0,-0.3318,-0.3257,-0.3241,-0.3217,-0.3131,-0.3125,-0.3089,-0.3031,-0.3008,-0.2965,-0.2949,-0.2904,-0.288,-0.2847,-0.2783,-0.2755,-0.2762,-0.2711,-0.2737,-0.2739,-0.2744,-0.2746,-0.285,-0.2726,-0.2725,-0.2725,-0.2725,0,-0.3222,-0.3181,-0.3166,-0.3094,-0.3081,-0.3069,-0.3021,-0.2994,-0.2939,-0.2906,-0.2871,-0.2816,-0.2795,-0.275,-0.2722,-0.2706,-0.2687,-0.2658,-0.2659,-0.2656,-0.2609,-0.2683,-0.2785,-0.2796,-0.265,-0.265,-0.2649,0,-0.3166,-0.3132,-0.3067,-0.3053,-0.3029,-0.2953,-0.2938,-0.289,-0.2844,-0.2817,-0.2765,-0.2733,-0.2684,-0.2665,-0.2659,-0.2605,-0.2626,-0.2599,-0.2564,-0.2564,-0.2587,-0.2679,-0.2714,-0.277,-0.264,-0.2641,-0.2641,0,-0.3114,-0.3008,-0.301,-0.298,-0.2903,-0.288,-0.2862,-0.2813,-0.2799,-0.275,-0.2735,-0.2684,-0.2648,-0.2615,-0.2564,-0.2562,-0.261,-0.2522,-0.2519,-0.2544,-0.2627,-0.2661,-0.2671,-0.2576,-0.2577,-0.2578,-0.2634,0,-0.2993,-0.2966,-0.2966,-0.2899,-0.287,-0.2855,-0.2781,-0.2761,-0.2716,-0.2668,-0.2641,-0.258,-0.2529,-0.2518,-0.2473,-0.2488,-0.2476,-0.2435,-0.2389,-0.2449,-0.2466,-0.2472,-0.237,-0.2368,-0.2367,-0.2366,0,0,-0.2958,-0.2916,-0.2844,-0.2823,-0.2795,-0.2715,-0.2707,-0.2669,-0.2594,-0.2577,-0.255,-0.2471,-0.2422,-0.2398,-0.241,-0.2387,-0.2385,-0.2365,-0.242,-0.2426,-0.2432,-0.2451,-0.2459,-0.2363,-0.2362,-0.2362,-0.2361,0,-0.2899,-0.2851,-0.2843,-0.2801,-0.2736,-0.2684,-0.2682,-0.2603,-0.2571,-0.2542,-0.2477,-0.2451,-0.2388,-0.2347,-0.2318,-0.2366,-0.2319,-0.2355,-0.2409,-0.2407,-0.2415,-0.2422,-0.2444,-0.2452,-0.2357,-0.2358,-0.2358,0,-0.2838,-0.278,-0.2767,-0.2696,-0.2651,-0.2625,-0.2559,-0.2533,-0.2513,-0.2425,-0.2398,-0.2354,-0.229,-0.2274,-0.2264,-0.2239,-0.2264,-0.224,-0.2247,-0.2246,-0.224,-0.225,-0.2259,-0.2141,-0.214,-0.214,0,0,-0.2798,-0.277,-0.2683,-0.2677,-0.2654,-0.2576,-0.2554,-0.2507,-0.2451,-0.243,-0.2372,-0.232,-0.2282,-0.2259,-0.222,-0.2212,-0.2195,-0.2216,-0.2227,-0.2235,-0.2238,-0.2235,-0.2245,-0.2138,-0.2138,-0.2138,0,0,-0.2778,-0.2678,-0.2642,-0.2625,-0.2576,-0.249,-0.2489,-0.2443,-0.24,-0.2393,-0.231,-0.2292,-0.2276,-0.2234,-0.2221,-0.2203,-0.2158,-0.2159,-0.2231,-0.2243,-0.2253,-0.2264,-0.2144,0,0,0,0,0,-0.268,-0.269,-0.2659,-0.2645,-0.2552,-0.2507,-0.2495,-0.2427,-0.2399,-0.24,-0.2344,-0.2293,-0.2211,-0.2198,-0.2184,-0.22,-0.2117,-0.2121,-0.2125,-0.2215,-0.2228,-0.224,0,0,0,0,0,0,-0.2674,-0.2657,-0.2658,-0.2574,-0.2552,-0.2506,-0.2443,-0.2424,-0.2397,-0.2388,-0.2305,-0.229,-0.2231,-0.2199,-0.2189,-0.2205,-0.2147,-0.2119,-0.2122,-0.2125,-0.222,-0.2231,-0.224,0,0,0,0,0,-0.2668,-0.2655,-0.2524,-0.2573,-0.2554,-0.2468,-0.2442,-0.2426,-0.2403,-0.2316,-0.2299,-0.2355,-0.2233,-0.222,-0.2193,-0.2212,-0.2154,-0.2151,-0.2121,-0.2123,-0.2126,-0.2225,0,0,0,0,0,0,-0.2665,-0.264,-0.2519,-0.2511,-0.2564,-0.2469,-0.2451,-0.2428,-0.2331,-0.2315,-0.2361,-0.2355,-0.2235,-0.2224,-0.2214,-0.2218,-0.216,-0.2156,-0.2154,-0.2123,-0.2125,-0.2126,0,0,0,0,0,0,-0.2647,-0.2634,-0.2515,-0.2507,-0.2497,-0.247,-0.2455,-0.2421,-0.2331,-0.2382,-0.2374,-0.236,-0.225,-0.2227,-0.2219,-0.2169,-0.2164,-0.2161,-0.2158,-0.2157,-0.2124,-0.2126,0,0,0,0,0,0,-0.264,-0.2628,-0.2508,-0.2501,-0.2492,-0.2395,-0.2439,-0.2347,-0.2326,-0.2387,-0.2322,-0.232,-0.2255,-0.2245,-0.2223,-0.2177,-0.2171,-0.2164,-0.2162,-0.216,-0.2159,0,0,0,0,0,0,0,-0.2634,-0.2727,-0.2568,-0.2496,-0.2488,-0.2435,-0.2433,-0.243,-0.2326,-0.2324,-0.2323,-0.2321,-0.2185,-0.2181,-0.2177,-0.2183,0,0,-0.2165,-0.2163,0,0,0,0,0,0,0,0,-0.273,-0.2727,-0.2567,-0.2566,-0.2564,-0.2434,-0.2433,-0.2431,-0.2326,-0.2324,-0.2323,-0.2322,-0.2184,-0.2181,-0.2178,0,0,0,0,0,0,0,0,0,0,0,0,0,0,0,-0.2567,-0.2566,0,-0.2434,-0.2433,-0.2431,-0.2325,-0.2324,-0.2323,-0.2322,-0.2183,-0.218,-0.2178,0,0,0,0,0,0,0,0,0,0,0,0,0,0,0,0,0,0,0,0,0,0,0,0,0,0,0,0,0,0,0,0,0,0,0,0,0,0,0,0,0,0,0,0,0,0,0,0,0,0,0,0,0,0,0,0,0,0,0,0,0,0,0,0,0,0,0,0,0]}],[{"header":{"parameterUnit":"kt","parameterCategory":2,"dx":1,"dy":1,"la1":30.253999710083008,"la2":30.299108505249023,"lo1":-89.0895004272461,"lo2":-89.04439544677734,"nx":28,"ny":28,"refTime":"2022-09-23T21:00:00:Z","depth":0,"parameterNumber":2,"parameterNumberName":"V-component_of_WINDS"},"data":[3.4014,3.4043,3.4005,3.402,3.3988,3.399,3.3978,3.3959,3.3933,3.393,3.3922,3.3886,3.3844,3.3822,3.3809,3.3793,3.3786,3.3824,3.3796,3.3669,3.3648,3.3628,3.3616,3.3825,3.3826,3.393,3.3931,3.3931,3.3917,3.3886,3.3885,3.3856,3.3853,3.3794,3.3767,3.3767,3.377,3.3741,3.3732,3.3726,3.3717,3.3661,3.3644,3.3654,3.3622,3.3651,3.3645,3.3637,3.3502,3.349,3.3676,3.3676,3.3676,3.3676,3.3676,3.3676,3.3727,3.3748,3.3708,3.3706,3.3683,3.3664,3.3676,3.3632,3.3629,3.3609,3.3566,3.3569,3.3531,3.3493,3.3471,3.347,3.343,3.3449,3.3451,3.3454,3.3461,3.33,3.3467,3.3467,3.3466,3.3465,3.3465,0,3.3574,3.354,3.3538,3.3523,3.3519,3.3505,3.3484,3.3492,3.3407,3.3409,3.3407,3.3399,3.3384,3.3376,3.3353,3.3326,3.3258,3.3252,3.3262,3.3276,3.3292,3.3274,3.3046,3.3245,3.3243,3.3241,3.324,3.3239,3.3371,3.3404,3.3346,3.3349,3.3328,3.3336,3.3331,3.3255,3.3253,3.3217,3.3238,3.3232,3.3221,3.3226,3.3172,3.316,3.3125,3.3204,3.3123,3.3137,3.3114,3.3109,3.3107,3.3218,3.3221,3.3223,3.3225,0,3.3258,3.3197,3.3235,3.3174,3.316,3.3197,3.3143,3.3162,3.3118,3.3136,3.3136,3.3065,3.3065,3.2998,3.2987,3.295,3.3001,3.2974,3.301,3.2998,3.3054,3.3046,3.3267,3.3288,3.3081,3.3083,3.3085,0,3.3056,3.3103,3.3006,3.3031,3.308,3.3001,3.305,3.3016,3.2984,3.2998,3.2915,3.293,3.2843,3.2847,3.2795,3.2826,3.2827,3.2798,3.2781,3.2799,3.2802,3.2789,3.2775,3.2757,3.2756,3.2755,3.2754,0,3.2878,3.2886,3.2928,3.2919,3.2859,3.2881,3.2857,3.2821,3.2819,3.2805,3.2801,3.2793,3.2786,3.2779,3.271,3.2657,3.2751,3.2663,3.2719,3.2721,3.2737,3.2735,3.2956,3.2752,3.2752,3.2752,3.2751,0,3.2701,3.2691,3.2767,3.2712,3.2716,3.2748,3.273,3.2742,3.271,3.2678,3.2668,3.2602,3.2631,3.2547,3.2582,3.253,3.2528,3.2504,3.2507,3.2497,3.2402,3.2523,3.2749,3.2765,3.2498,3.2496,3.2494,0,3.2508,3.257,3.2501,3.2576,3.2593,3.2493,3.2526,3.2501,3.2462,3.2469,3.2426,3.2437,3.2361,3.2354,3.2382,3.2335,3.2404,3.2326,3.2327,3.2328,3.2327,3.2537,3.2582,3.2709,3.2467,3.247,3.2472,0,3.235,3.2279,3.2298,3.2281,3.2238,3.2255,3.2295,3.2287,3.2294,3.2282,3.2306,3.2326,3.2265,3.2257,3.2203,3.2236,3.2355,3.2166,3.2164,3.2194,3.2451,3.2492,3.2514,3.2311,3.2315,3.2317,3.245,0,3.2078,3.2103,3.2154,3.2127,3.2131,3.2178,3.2105,3.2118,3.2064,3.202,3.2063,3.2029,3.2022,3.2034,3.1983,3.2083,3.2053,3.1991,3.1896,3.2039,3.2079,3.2097,3.184,3.1837,3.1835,3.1832,0,0,3.1903,3.1937,3.1863,3.1898,3.1894,3.179,3.1845,3.1831,3.1805,3.1803,3.1752,3.1772,3.1747,3.1804,3.1844,3.1846,3.1853,3.1808,3.1974,3.199,3.2005,3.205,3.207,3.1828,3.1827,3.1826,3.1825,0,3.1785,3.1767,3.1824,3.1805,3.1775,3.1727,3.1741,3.1692,3.1667,3.1713,3.1622,3.1641,3.1664,3.1643,3.1636,3.1802,3.173,3.1808,3.1915,3.195,3.197,3.1987,3.2036,3.2056,3.1819,3.1819,3.1819,0,3.1608,3.1573,3.1595,3.1589,3.1568,3.1592,3.1476,3.151,3.1525,3.1409,3.1454,3.1425,3.1396,3.1466,3.1495,3.1447,3.162,3.1558,3.1572,3.1571,3.1601,3.1625,3.1646,3.1365,3.1363,3.1362,0,0,3.1516,3.1542,3.1479,3.1558,3.1551,3.1482,3.1489,3.1435,3.1412,3.1404,3.1364,3.1344,3.1354,3.1363,3.1371,3.146,3.1442,3.1505,3.1526,3.1544,3.1552,3.1587,3.1611,3.1357,3.1357,3.1357,0,0,3.1471,3.1401,3.1351,3.1434,3.1416,3.1358,3.1407,3.1343,3.1343,3.1329,3.124,3.1231,3.1295,3.1271,3.1213,3.1334,3.1243,3.1256,3.1346,3.1372,3.1393,3.1393,3.1086,0,0,0,0,0,3.1313,3.1409,3.1365,3.1368,3.1361,3.1384,3.1382,3.131,3.1244,3.1285,3.1241,3.1167,3.122,3.1166,3.117,3.1233,3.1293,3.1305,3.1315,3.1451,3.148,3.1503,0,0,0,0,0,0,3.1314,3.1318,3.1362,3.131,3.1307,3.1379,3.1252,3.1235,3.1238,3.1223,3.1178,3.1166,3.1104,3.1159,3.1164,3.1225,3.1085,3.1298,3.1307,3.1316,3.1461,3.1484,3.1504,0,0,0,0,0,3.1314,3.1317,3.1325,3.1308,3.1306,3.1233,3.1248,3.1233,3.1234,3.1167,3.1152,3.1179,3.1108,3.1107,3.1162,3.1225,3.1081,3.1083,3.1304,3.1312,3.1318,3.1472,0,0,0,0,0,0,3.1314,3.1303,3.1323,3.1319,3.1266,3.1227,3.1219,3.1231,3.1176,3.1163,3.1163,3.1152,3.1112,3.1111,3.111,3.1228,3.1078,3.108,3.1081,3.131,3.1316,3.1321,0,0,0,0,0,0,3.13,3.1301,3.1321,3.1272,3.1262,3.1223,3.1215,3.1253,3.1177,3.1175,3.1164,3.1159,3.1112,3.1114,3.1113,3.1175,3.1075,3.1077,3.1079,3.108,3.1315,3.1319,0,0,0,0,0,0,3.1299,3.13,3.1272,3.1265,3.1256,3.1212,3.1254,3.125,3.1136,3.1179,3.1123,3.1118,3.1118,3.1115,3.1116,3.1178,3.1175,3.1075,3.1077,3.1078,3.1078,0,0,0,0,0,0,0,3.1298,3.1314,3.1343,3.1259,3.1251,3.1287,3.1286,3.1286,3.1135,3.113,3.1125,3.112,3.1064,3.1066,3.1068,3.1181,0,0,3.1075,3.1076,0,0,0,0,0,0,0,0,3.1312,3.1314,3.1343,3.1342,3.1342,3.1287,3.1286,3.1286,3.1134,3.113,3.1126,3.1122,3.1064,3.1066,3.1068,0,0,0,0,0,0,0,0,0,0,0,0,0,0,0,3.1343,3.1342,0,3.1287,3.1287,3.1286,3.1133,3.113,3.1127,3.1124,3.1065,3.1066,3.1068,0,0,0,0,0,0,0,0,0,0,0,0,0,0,0,0,0,0,0,0,0,0,0,0,0,0,0,0,0,0,0,0,0,0,0,0,0,0,0,0,0,0,0,0,0,0,0,0,0,0,0,0,0,0,0,0,0,0,0,0,0,0,0,0,0,0,0,0,0]}]]]